Regional Weather Roundup
Issued by NWS

Home | Current Version | Previous Version | Graphics & Text | Print | Product List | Glossary On
Versions: 1 2 3 4 5 6 7 8 9 10 11 12 13 14 15 16 17 18 19 20 21 22 23 24 25 26 27 28 29 30 31 32 33 34 35 36 37 38 39 40 41 42 43 44 45 46 47 48 49 50
000
ASUS43 KOAX 230410
RWRNE

WEATHER ROUNDUP FOR NEBRASKA
NATIONAL WEATHER SERVICE OMAHA NE
1000 PM CST SAT NOV 22 2014

NOTES: SATELLITE DATA IS BEING USED TO AUGMENT CLOUD COVER ABOVE
       12000 FEET.
       "FAIR" INDICATES FEW OR NO CLOUDS BELOW 12,000 FEET WITH NO
       SIGNIFICANT WEATHER AND/OR OBSTRUCTIONS TO VISIBILITY.

  * THESE STATIONS DO NOT REPORT WEATHER SUCH AS RAIN...SNOW OR FOG.

NEZ001>004-019>022-054>056-230500-
NEBRASKA PANHANDLE

CITY           SKY/WX    TMP DP  RH WIND       PRES   REMARKS
SCOTTSBLUFF    PTCLDY    34  26  72 W3        29.51S
ALLIANCE       MOCLDY    39  29  67 SW9       29.48F WCI  33
CHADRON        PTCLDY    40  31  70 CALM      29.45F
KIMBALL        MOCLDY    38  22  54 W7        29.53F WCI  32
SIDNEY         CLOUDY    35  23  61 W12       29.53S WCI  27
$$

NEZ057>060-069>072-079>082-230500-
SOUTHWEST NEBRASKA

CITY           SKY/WX    TMP DP  RH WIND       PRES   REMARKS
NORTH PLATTE   CLOUDY    38  26  62 NW6       29.51F WCI  33
IMPERIAL       CLOUDY    43  16  33 CALM      29.52F
LEXINGTON      MOCLDY    51  31  45 S6        29.52S
MCCOOK         MOCLDY    48  22  35 W5        29.51S
OGALLALA       CLOUDY    40  24  51 CALM      29.50F
$$

NEZ005>010-023>029-035>040-094-230500-
NORTH CENTRAL NEBRASKA

CITY           SKY/WX    TMP DP  RH WIND       PRES   REMARKS
VALENTINE      CLOUDY    44  38  79 SW7       29.46F
AINSWORTH      CLOUDY    52  34  49 W12       29.49S
BROKEN BOW     CLOUDY    49  32  52 SW10      29.50F
O`NEILL        CLOUDY    49  35  57 SW10      29.48S
ORD            CLOUDY    36  29  75 S5        29.50F WCI  32
THEDFORD       LGT RAIN  52  29  41 SW5       29.52S
$$

NEZ041-046>049-061>064-073>077-083>087-230500-
SOUTH CENTRAL NEBRASKA

CITY           SKY/WX    TMP DP  RH WIND       PRES   REMARKS
AURORA         CLOUDY    53  51  93 S16G22    29.54F
HASTINGS       CLOUDY    53  50  89 S10G21    29.54F FOG
HEBRON         CLOUDY    57  51  80 S13G20    29.58F
HOLDREGE       MOCLDY    42  36  80 S9        29.53F
KEARNEY *      MOCLDY    45  39  81 SE13      29.55S
YORK           CLOUDY    52  50  93 SW16      29.56S
$$

NEZ011>018-030>034-042>045-230500-
NORTHEAST NEBRASKA

CITY           SKY/WX    TMP DP  RH WIND       PRES   REMARKS
NORFOLK        CLOUDY    48  47  96 S22       29.50S FOG
ALBION         MOCLDY    40  34  80 S6        29.52F
BLAIR          CLOUDY    57  53  88 S16       29.57F
COLUMBUS *     MOCLDY    54  48  82 S13G22    29.55F
FREMONT        PTCLDY    56  52  86 S10       29.56F
TEKAMAH        MOCLDY    53  49  86 S15       29.55F
WAYNE          CLOUDY    50  49  95 S21G28    29.52S FOG
$$

NEZ050>053-065>068-078-088>093-230500-
SOUTHEAST NEBRASKA

CITY           SKY/WX    TMP DP  RH WIND       PRES   REMARKS
LINCOLN        CLOUDY    57  52  83 S16       29.58F
OMAHA EPPLEY   CLOUDY    54  52  93 SE14      29.59F
BEATRICE       CLOUDY    56  53  89 S14G23    29.61S
FALLS CITY     CLOUDY    55  51  86 S13G22    29.65F
NEBRASKA CITY  CLOUDY    55  53  91 S18G25    29.62S
PLATTSMOUTH    CLOUDY    55  51  87 S18       29.60F
$$

NEZ044-045-051>053-067-230500-
OMAHA AREA

CITY           SKY/WX    TMP DP  RH WIND       PRES   REMARKS
OMAHA EPPLEY   CLOUDY    54  52  93 SE14      29.59F
BLAIR          CLOUDY    57  53  88 S16       29.57F
FREMONT        PTCLDY    56  52  86 S10       29.56F
MILLARD        CLOUDY    58  53  83 SE6       29.59S
OFFUTT AFB     CLOUDY    56  52  87 S13       29.60S
PLATTSMOUTH    CLOUDY    55  51  87 S18       29.60F
WAHOO          CLOUDY    56  51  82 S10       29.57F
$$


USA.gov is the U.S. government's official web portal to all federal, state and local government web resources and services.